Consulta los datos en tiempo real de la estación municipal de Susqueda - Veïnat del Coll
| Hora UTC | 01:40 |
|---|---|
| Temperatura | 8.9 ºC |
| Humedad | 90.5 % |
| Presión | 1017.9 hPa |
| Pluja | 0.0 mm |
| Velocidad viento | 4.0 km/h |
| Dirección viento | SW |
| Radiación solar | 0.1 W/m² |
| Temperatura (ºC) | Humedad (%) | Presión (hPa) | Velocidad viento (km/h) | Precipitación (mm) | Radiación solar (W/m²) | |||||||||||||
|---|---|---|---|---|---|---|---|---|---|---|---|---|---|---|---|---|---|---|
| Hora UTC | Aire | Humedad | Presión | Vel. | Dir. | Vel. Max | Dir. | Intent. máx 5 min. | Rad. Sol. | |||||||||
| 00:05 | 9.1 | 81.5 | 1018.7 | 4.4 | SW | 4.4 | SW | 0.0 | 0.1 | |||||||||
| 00:10 | 9.1 | 81.7 | 1018.7 | 4.0 | SW | 8.8 | W | 0.0 | 0.1 | |||||||||
| 00:15 | 9.1 | 81.9 | 1018.7 | 4.1 | SW | 9.2 | SW | 0.0 | 0.1 | |||||||||
| 00:20 | 9.1 | 82.8 | 1018.7 | 4.1 | WSW | 9.9 | WSW | 0.0 | 0.1 | |||||||||
| 00:25 | 9.1 | 83.8 | 1018.5 | 4.1 | WSW | 8.1 | SSW | 0.0 | 0.1 | |||||||||
| 00:30 | 9.1 | 84.9 | 1018.5 | 3.5 | SW | 12.0 | SW | 0.0 | 0.1 | |||||||||
| 00:35 | 9.1 | 85.4 | 1018.5 | 3.7 | SW | 7.1 | SSW | 0.0 | 0.1 | |||||||||
| 00:40 | 9.0 | 85.7 | 1018.5 | 2.9 | SW | 6.7 | WSW | 0.0 | 0.1 | |||||||||
| 00:45 | 9.0 | 86.0 | 1018.3 | 4.8 | SSW | 9.9 | S | 0.0 | 0.1 | |||||||||
| 00:50 | 9.2 | 75.9 | 1018.3 | 6.4 | S | 11.3 | SSW | 0.0 | 0.1 | |||||||||
| 00:55 | 9.7 | 71.3 | 1018.3 | 3.3 | SW | 8.1 | SSE | 0.0 | 0.1 | |||||||||
| 01:00 | 9.5 | 82.1 | 1018.3 | 3.4 | SW | 6.7 | WSW | 0.0 | 0.1 | |||||||||
| 01:05 | 9.2 | 85.5 | 1018.1 | 3.7 | SW | 7.1 | SW | 0.0 | 0.1 | |||||||||
| 01:10 | 9.1 | 86.7 | 1018.1 | 3.5 | WSW | 7.1 | WSW | 0.0 | 0.1 | |||||||||
| 01:15 | 9.1 | 87.5 | 1017.9 | 3.4 | WSW | 7.1 | W | 0.0 | 0.1 | |||||||||
| 01:20 | 9.0 | 88.1 | 1017.9 | 3.4 | SW | 6.4 | SSW | 0.0 | 0.1 | |||||||||
| 01:25 | 9.0 | 88.6 | 1017.9 | 3.2 | WSW | 7.1 | SSW | 0.0 | 0.1 | |||||||||
| 01:30 | 9.0 | 89.1 | 1017.9 | 3.1 | SW | 5.6 | S | 0.0 | 0.1 | |||||||||
| 01:35 | 8.9 | 89.4 | 1017.9 | 3.9 | SW | 8.1 | SSW | 0.0 | 0.1 | |||||||||
| 01:40 | 8.9 | 90.5 | 1017.9 | 4.0 | SW | 8.1 | SW | 0.0 | 0.1 | |||||||||
| Máxima | 9.7 | 90.5 | 1018.7 | 6.4 | S | 12.0 | SW | 0.0 | 0.1 | |||||||||
| Mínima | 8.9 | 71.3 | 1017.9 | |||||||||||||||
| Total | 0.0 | |||||||||||||||||